Torna al catalogo

STARLINK-32159

AttivoComunicazioniVLEO
NORAD 60293·PAYLOAD·🇺🇸 United States

Lanciato Jul 28, 2024 da Cape Canaveral Space Force Station

Loading…

Prossimi Passaggi (prossime 24 ore)

TLE

AggiornatoSource: CelesTrak SupGP

Epoca: Sep 14, 2026, 14:51 UTC

1 60293C 24132R   26257.61923611 -.00032898  00000+0 -99850-3 0  2575
2 60293  53.1587 253.1502 0001496  84.0632 167.6524 15.33557712    13

Traccia STARLINK-32159 in tempo reale con AllMySat

Download on the App Store